N77PC KSTL-KMCI

Flight info

Callsign N77PC
Flight time N/A
Altitude 40000
Route WHRLI7 MCM DCT EUING RUDDH3
Aircraft C700/M-SBDGHM1RWXY/LB2

Departure

Time 2026-04-29 19:20
Airport St. Louis Lambert International Airport (KSTL)

Arrival

Time N/A
Airport Kansas City International Airport (KMCI)
Time Latitude Longitude Altitude Speed Heading
2026-04-29 19:05 38.74559 -90.34866 573 ft 0 kts 251°
2026-04-29 19:14 38.74562 -90.34856 576 ft 2 kts 251°
2026-04-29 19:14 38.74567 -90.34839 574 ft 2 kts 251°
2026-04-29 19:14 38.74568 -90.34835 574 ft 0 kts 251°
2026-04-29 19:15 38.74566 -90.34842 574 ft 0 kts 252°
2026-04-29 19:15 38.74565 -90.34846 574 ft 0 kts 253°
2026-04-29 19:16 38.74552 -90.34843 579 ft 7 kts 155°
2026-04-29 19:16 38.74467 -90.34845 576 ft 8 kts 122°
2026-04-29 19:16 38.74434 -90.34778 577 ft 12 kts 126°
2026-04-29 19:16 38.74382 -90.34672 581 ft 16 kts 127°
2026-04-29 19:17 38.74270 -90.34675 585 ft 21 kts 212°
2026-04-29 19:17 38.74124 -90.34789 586 ft 26 kts 194°
2026-04-29 19:17 38.74033 -90.34694 588 ft 20 kts 120°
2026-04-29 19:17 38.73939 -90.34546 592 ft 21 kts 168°
2026-04-29 19:18 38.73834 -90.34616 590 ft 19 kts 212°
2026-04-29 19:18 38.73809 -90.34705 590 ft 17 kts 295°
2026-04-29 19:18 38.73826 -90.34749 589 ft 0 kts 301°
2026-04-29 19:19 38.73880 -90.34861 586 ft 58 kts 302°
2026-04-29 19:19 38.74292 -90.35693 686 ft 149 kts 306°
2026-04-29 19:20 38.74839 -90.36873 1983 ft 167 kts 304°
2026-04-29 19:20 38.75532 -90.38247 2768 ft 197 kts 304°
2026-04-29 19:20 38.76268 -90.39750 2705 ft 197 kts 304°
2026-04-29 19:20 38.76989 -90.41219 3136 ft 196 kts 304°
2026-04-29 19:21 38.77756 -90.42773 4528 ft 218 kts 304°
2026-04-29 19:21 38.78618 -90.44512 5990 ft 242 kts 303°
2026-04-29 19:21 38.79524 -90.46351 7764 ft 246 kts 302°
2026-04-29 19:21 38.80451 -90.48177 9651 ft 248 kts 302°
2026-04-29 19:22 38.81430 -90.50095 11301 ft 266 kts 301°
2026-04-29 19:22 38.82432 -90.52096 13064 ft 269 kts 299°
2026-04-29 19:22 38.83442 -90.54104 15007 ft 270 kts 298°
2026-04-29 19:22 38.84477 -90.56165 16566 ft 279 kts 297°
2026-04-29 19:23 38.85541 -90.58278 18131 ft 285 kts 297°
2026-04-29 19:23 38.86630 -90.60445 19480 ft 292 kts 296°
2026-04-29 19:23 38.87747 -90.62668 20691 ft 299 kts 296°
2026-04-29 19:23 38.88883 -90.64932 21852 ft 304 kts 296°
2026-04-29 19:24 38.90040 -90.67242 23019 ft 310 kts 296°
2026-04-29 19:24 38.91220 -90.69594 24085 ft 316 kts 296°
2026-04-29 19:24 38.92395 -90.71937 25134 ft 317 kts 296°
2026-04-29 19:24 38.93604 -90.74350 26226 ft 318 kts 295°
2026-04-29 19:25 38.94787 -90.76718 27245 ft 320 kts 295°
2026-04-29 19:25 38.95995 -90.79138 28262 ft 322 kts 295°
2026-04-29 19:25 38.97209 -90.81566 29267 ft 325 kts 295°
2026-04-29 19:25 38.98431 -90.84017 30232 ft 327 kts 295°
2026-04-29 19:26 38.99668 -90.86500 30983 ft 332 kts 295°
2026-04-29 19:26 39.00920 -90.89015 31677 ft 337 kts 295°
2026-04-29 19:26 39.02193 -90.91573 32358 ft 342 kts 295°
2026-04-29 19:26 39.03484 -90.94164 33020 ft 346 kts 295°
2026-04-29 19:27 39.04788 -90.96785 33764 ft 348 kts 295°
2026-04-29 19:27 39.06087 -90.99398 34584 ft 346 kts 295°
2026-04-29 19:27 39.07380 -91.02007 35234 ft 347 kts 295°
2026-04-29 19:27 39.08678 -91.04629 35860 ft 348 kts 296°
2026-04-29 19:28 39.09959 -91.07236 36452 ft 348 kts 295°
2026-04-29 19:28 39.11090 -91.09974 37028 ft 346 kts 291°
2026-04-29 19:28 39.12196 -91.12746 37585 ft 348 kts 292°
2026-04-29 19:28 39.13322 -91.15513 38132 ft 349 kts 292°
2026-04-29 19:29 39.14441 -91.18297 38658 ft 350 kts 292°
2026-04-29 19:29 39.15555 -91.21091 39070 ft 351 kts 292°
2026-04-29 19:29 39.16677 -91.23902 39427 ft 353 kts 292°
2026-04-29 19:29 39.17806 -91.26719 39775 ft 355 kts 292°
2026-04-29 19:30 39.18943 -91.29562 40020 ft 359 kts 292°
2026-04-29 19:30 39.20100 -91.32470 40026 ft 370 kts 292°
2026-04-29 19:30 39.21275 -91.35420 40030 ft 380 kts 292°
2026-04-29 19:31 39.23759 -91.41649 40042 ft 399 kts 292°
2026-04-29 19:31 39.26328 -91.48116 40051 ft 407 kts 292°
2026-04-29 19:32 39.28905 -91.54608 40061 ft 404 kts 292°
2026-04-29 19:32 39.31449 -91.61045 40061 ft 403 kts 292°
2026-04-29 19:33 39.33993 -91.67488 40067 ft 407 kts 292°
2026-04-29 19:33 39.36569 -91.74026 40067 ft 407 kts 292°